Location: Newark
(54.3386°S, 169.8415°W)
Time: 10:52:36
(UTC+00:00)

Vanguard 1 Rocket - Visible Passes

Search period start: 18 October 2019 00:00
Search period end: 28 October 2019 00:00
Orbit: 650 x 4226 km, 34.3° (Epoch: 17 October)

Date Brightness Start Highest point End Pass type
(mag) Time Alt. Az. Time Alt. Az. Time Alt. Az.
23 Oct 10.1 08:45:25 10° NNW 08:48:59 14° N 08:48:59 14° N visible
24 Oct 10.0 07:34:10 10° N 07:39:34 13° NNE 07:42:29 12° NNE visible
24 Oct 10.2 09:58:31 10° NW 09:59:50 12° NNW 09:59:50 12° NNW visible
25 Oct 9.7 08:45:54 10° NNW 08:53:15 18° N 08:53:15 18° N visible
26 Oct 9.8 07:33:39 10° NNW 07:42:04 18° NNE 07:46:36 13° NE visible
26 Oct 9.9 10:00:00 10° NW 10:03:56 16° NNW 10:03:56 16° NNW visible
27 Oct 9.5 08:46:52 10° NW 08:55:52 21° N 08:57:12 21° N visible
